GW6872 Weather Reports


time (UTC)temp
F
wind
direction
speed
knots
gust
knots
rain 1hr
in
rain 24hr
in
rain mn
in
humidity
%
barometer
mb
20260507052421 49 295 0.0 0.0 0.00 0.00 0.00 85 1009.5
20260507051919 49 330 0.0 0.9 0.00 0.00 0.00 85 1009.5
20260507051418 49 334 0.9 0.9 0.00 0.00 0.00 84 1009.1
20260507050920 49 79 0.0 0.0 0.00 0.00 0.00 84 1009.1
20260507050421 49 331 0.0 0.9 0.00 0.00 0.00 84 1009.5
20260507045919 49 274 0.0 0.9 0.00 0.00 0.00 83 1009.5
20260507045420 49 306 0.0 0.0 0.00 0.00 0.00 84 1009.5
20260507044923 49 317 0.0 0.9 0.00 0.00 0.00 84 1009.5
20260507044418 49 303 0.9 0.9 0.00 0.00 0.00 84 1009.1
20260507043918 49 339 0.0 1.7 0.00 0.00 0.00 84 1009.1
20260507043418 49 312 0.0 1.7 0.00 0.00 0.00 83 1009.1
20260507042918 49 333 0.9 0.9 0.00 0.00 0.00 83 1009.5
20260507042420 49 335 0.0 0.0 0.00 0.00 0.00 84 1009.1
20260507041921 49 333 0.0 0.9 0.00 0.00 0.00 83 1009.1
20260507041419 50 11 0.0 0.9 0.00 0.00 0.00 83 1009.5
20260507040918 50 331 0.0 0.9 0.00 0.00 0.00 83 1009.1
20260507040418 50 285 0.0 0.0 0.00 0.00 0.00 83 1009.5
20260507035920 50 284 0.0 0.0 0.00 0.00 0.00 83 1009.1
20260507035420 50 246 0.0 0.0 0.00 0.00 0.00 82 1009.1
20260507034920 50 320 0.0 0.0 0.00 0.00 0.00 82 1009.1
20260507034419 50 317 0.0 0.9 0.00 0.00 0.00 81 1009.1
20260507033919 50 263 0.0 0.0 0.00 0.00 0.00 81 1009.1
20260507033419 50 291 0.0 0.0 0.00 0.00 0.00 81 1009.1
20260507032919 50 0 0.0 0.9 0.00 0.00 0.00 81 1009.1
20260507032419 51 331 0.9 1.7 0.00 0.00 0.00 81 1008.8
20260507031918 51 265 0.0 0.0 0.00 0.00 0.00 81 1009.1
20260507031422 51 259 0.0 0.9 0.00 0.00 0.00 81 1009.1
20260507030922 51 296 0.0 0.0 0.00 0.00 0.00 81 1009.1
20260507030420 51 227 0.0 0.0 0.00 0.00 0.00 81 1009.1
20260507025919 51 232 0.0 0.0 0.00 0.00 0.00 81 1009.1
20260507025420 51 243 0.0 0.0 0.00 0.00 0.00 81 1009.1
20260507024919 51 260 0.0 0.0 0.00 0.00 0.00 81 1009.1
20260507024418 51 269 0.0 0.0 0.00 0.00 0.00 81 1009.1
20260507023920 51 223 0.0 0.0 0.00 0.00 0.00 81 1009.1
20260507023418 51 221 0.0 0.0 0.00 0.00 0.00 81 1009.1
20260507022923 51 214 0.0 0.0 0.00 0.00 0.00 81 1009.1
20260507022422 51 223 0.0 0.0 0.00 0.00 0.00 81 1009.1
20260507021918 51 237 0.0 0.0 0.00 0.00 0.00 81 1009.1
20260507021422 51 205 0.0 0.0 0.00 0.00 0.00 81 1008.8
20260507020921 51 208 0.0 0.0 0.00 0.00 0.00 81 1008.8
20260507020422 51 186 0.0 0.0 0.00 0.00 0.00 81 1009.1
20260507015921 51 227 0.0 0.0 0.00 0.00 0.00 81 1008.8
20260507015420 51 218 0.0 0.0 0.00 0.00 0.00 81 1008.8
20260507014921 51 210 0.0 0.0 0.00 0.00 0.00 81 1009.1
20260507014421 51 209 0.0 0.0 0.00 0.00 0.00 81 1009.1
20260507013920 50 254 0.0 0.0 0.00 0.00 0.00 81 1008.8
20260507013419 50 270 0.0 0.0 0.00 0.00 0.00 81 1009.1
20260507012920 50 210 0.0 0.0 0.00 0.00 0.00 81 1008.8
20260507012418 50 214 0.0 0.0 0.00 0.00 0.00 81 1009.1
20260507011919 50 233 0.0 0.0 0.00 0.00 0.00 81 1008.8
20260507011421 51 201 0.0 0.0 0.00 0.00 0.00 81 1009.1
20260507010918 50 197 0.0 0.0 0.00 0.00 0.00 81 1008.8
20260507010420 51 208 0.0 0.0 0.00 0.00 0.00 80 1008.8
20260507005921 51 233 0.0 0.0 0.00 0.00 0.00 80 1008.8
20260507005419 51 242 0.0 0.0 0.00 0.00 0.00 80 1008.8
20260507004920 51 223 0.0 0.0 0.00 0.00 0.00 80 1008.8
20260507004420 51 270 0.0 0.0 0.00 0.00 0.00 79 1009.1
20260507003919 51 193 0.0 0.0 0.00 0.00 0.00 79 1009.1
20260507003418 51 228 0.0 0.0 0.00 0.00 0.00 79 1009.1
20260507002920 51 217 0.0 0.0 0.00 0.00 0.00 79 1008.8
20260507002420 51 234 0.0 0.0 0.00 0.00 0.00 78 1008.8
20260507001922 51 245 0.0 0.9 0.00 0.00 0.00 78 1009.1
20260507001418 51 213 0.0 0.0 0.00 0.00 0.00 78 1008.8
20260507000918 51 176 0.0 0.0 0.00 0.00 0.00 78 1009.1
20260507000420 51 224 0.0 0.0 0.00 0.00 0.00 78 1009.1
20260506235922 51 174 0.0 0.0 0.00 0.00 0.00 78 1008.8
20260506235418 51 300 0.0 0.0 0.00 0.00 0.00 77 1009.1
20260506234918 51 248 0.0 0.0 0.00 0.00 0.00 77 1009.1
20260506234420 52 245 0.0 0.0 0.00 0.00 0.00 77 1008.8
20260506233919 51 246 0.0 0.0 0.00 0.00 0.00 77 1008.8
20260506233425 52 245 0.0 0.0 0.00 0.00 0.00 77 1008.8
20260506232918 52 240 0.0 0.0 0.00 0.00 0.00 76 1008.8
20260506232418 52 204 0.0 0.0 0.00 0.00 0.00 76 1008.8
20260506231920 52 183 0.0 0.0 0.00 0.00 0.00 76 1008.8
20260506231419 52 174 0.0 0.0 0.00 0.00 0.00 75 1008.8
20260506230919 52 204 0.0 0.0 0.00 0.00 0.00 75 1008.8
20260506230418 52 207 0.0 0.0 0.00 0.00 0.00 74 1008.8
20260506225920 52 216 0.0 0.0 0.00 0.00 0.00 74 1008.8
20260506225418 52 223 0.0 0.0 0.00 0.00 0.00 74 1009.1
20260506224919 52 225 0.0 0.0 0.00 0.00 0.00 74 1008.8
20260506224420 52 185 0.0 0.0 0.00 0.00 0.00 74 1008.8
20260506223919 52 212 0.0 0.0 0.00 0.00 0.00 74 1008.8
20260506223420 52 335 0.0 0.9 0.00 0.00 0.00 73 1008.8
20260506222920 52 202 0.0 0.0 0.00 0.00 0.00 72 1008.8
20260506222420 52 256 0.0 0.0 0.00 0.00 0.00 72 1008.5
20260506221921 52 216 0.0 0.0 0.00 0.00 0.00 72 1008.8
20260506221419 53 258 0.0 0.9 0.00 0.00 0.00 71 1008.5
20260506220918 53 223 0.0 0.0 0.00 0.00 0.00 71 1008.5
20260506220421 53 290 0.0 0.0 0.00 0.00 0.00 71 1008.8
20260506215920 53 153 0.0 0.9 0.00 0.00 0.00 70 1008.5
20260506215418 53 147 0.0 0.0 0.00 0.00 0.00 69 1008.5
20260506214919 53 313 0.0 0.9 0.00 0.00 0.00 69 1008.5
20260506214418 53 168 0.0 0.0 0.00 0.00 0.00 69 1008.5
20260506213920 53 207 0.0 0.9 0.00 0.00 0.00 68 1008.8
20260506213419 53 205 0.0 0.0 0.00 0.00 0.00 68 1008.5
20260506212921 53 227 0.0 0.9 0.00 0.00 0.00 68 1008.5
20260506212420 53 129 0.0 0.0 0.00 0.00 0.00 67 1008.5
20260506211920 53 108 0.0 0.9 0.00 0.00 0.00 67 1008.5
20260506211419 53 303 0.9 0.9 0.00 0.00 0.00 66 1008.5
20260506210921 53 239 0.0 0.0 0.00 0.00 0.00 66 1008.5
20260506210419 53 148 0.0 0.9 0.00 0.00 0.00 65 1008.5
20260506205921 54 202 0.0 0.0 0.00 0.00 0.00 65 1008.5
20260506205422 54 120 0.0 0.9 0.00 0.00 0.00 64 1008.1
20260506204919 54 205 0.0 0.9 0.00 0.00 0.00 64 1008.5
20260506204420 55 287 0.0 0.9 0.00 0.00 0.00 63 1008.1
20260506203920 55 203 0.0 0.0 0.00 0.00 0.00 63 1008.5
20260506203418 55 233 0.0 0.0 0.00 0.00 0.00 63 1008.5
20260506202919 54 204 0.0 0.9 0.00 0.00 0.00 63 1008.1
20260506202421 54 274 0.0 0.0 0.00 0.00 0.00 63 1008.1
20260506201923 54 351 0.9 0.9 0.00 0.00 0.00 62 1008.1
20260506201419 55 165 0.0 0.9 0.00 0.00 0.00 62 1008.1
20260506200920 55 281 0.0 0.0 0.00 0.00 0.00 62 1008.1
20260506200423 55 251 0.0 0.0 0.00 0.00 0.00 62 1008.1
20260506195920 55 325 0.0 0.9 0.00 0.00 0.00 61 1007.8
20260506195425 55 297 0.0 0.0 0.00 0.00 0.00 61 1007.8
20260506194920 55 248 0.0 0.9 0.00 0.00 0.00 61 1008.1
20260506194423 55 238 0.0 0.0 0.00 0.00 0.00 61 1007.8
20260506193922 55 161 0.0 0.9 0.00 0.00 0.00 61 1007.8
20260506193421 55 19 0.0 0.9 0.00 0.00 0.00 61 1007.8
20260506192918 55 86 0.0 2.6 0.00 0.00 0.00 60 1007.5
20260506192418 55 213 0.0 0.9 0.00 0.00 0.00 60 1007.5
20260506191920 55 308 0.0 0.0 0.00 0.00 0.00 60 1007.5
20260506191423 56 206 0.0 0.9 0.00 0.00 0.00 60 1007.5
20260506190920 55 224 0.0 0.0 0.00 0.00 0.00 60 1007.5
20260506190418 55 13 0.9 0.9 0.00 0.00 0.00 59 1007.8
20260506185922 55 300 0.0 0.9 0.00 0.00 0.00 60 1007.5
20260506185421 56 258 0.0 0.0 0.00 0.00 0.00 59 1007.5
20260506184920 56 210 0.0 0.0 0.00 0.00 0.00 59 1007.5
20260506184424 56 207 0.0 0.0 0.00 0.00 0.00 60 1007.1
20260506183919 56 169 0.0 0.0 0.00 0.00 0.00 60 1007.5
20260506183419 56 212 0.0 0.0 0.00 0.00 0.00 60 1007.1
20260506182922 56 236 0.0 0.0 0.00 0.00 0.00 59 1007.1
20260506182421 56 111 0.0 0.9 0.00 0.00 0.00 59 1007.1
20260506181919 56 299 0.0 1.7 0.00 0.00 0.00 59 1007.1
20260506181420 57 349 0.0 0.9 0.00 0.00 0.00 59 1007.1
20260506180436 57 335 0.0 0.0 0.00 0.00 0.00 59 1007.1
20260506175923 56 86 0.0 0.0 0.00 0.00 0.00 59 1006.8
20260506175421 56 256 0.9 0.9 0.00 0.00 0.00 59 1006.8
20260506174924 57 206 0.0 1.7 0.00 0.00 0.00 57 1006.8
20260506174418 57 100 0.0 0.9 0.00 0.00 0.00 57 1006.8
20260506173923 57 93 0.0 0.9 0.00 0.00 0.00 57 1006.8
20260506173418 57 200 0.0 0.9 0.00 0.00 0.00 56 1006.8
20260506172923 57 238 0.0 0.0 0.00 0.00 0.00 55 1006.8
20260506172421 58 207 0.0 0.9 0.00 0.00 0.00 55 1006.8
20260506171921 57 211 0.0 0.0 0.00 0.00 0.00 55 1006.8
20260506171422 57 345 0.0 0.9 0.00 0.00 0.00 55 1006.8
20260506170920 57 168 0.0 0.0 0.00 0.00 0.00 55 1006.8
20260506170420 57 261 0.0 0.9 0.00 0.00 0.00 55 1006.8
20260506165920 58 78 0.0 6.1 0.00 0.00 0.00 54 1006.8
20260506165418 58 27 0.0 0.9 0.00 0.00 0.00 54 1006.8
20260506164919 58 257 0.0 0.9 0.00 0.00 0.00 53 1006.8
20260506164418 58 240 0.0 0.0 0.00 0.00 0.00 53 1006.4
20260506163921 58 114 0.9 1.7 0.00 0.00 0.00 53 1006.8
20260506163424 59 197 0.9 0.9 0.00 0.00 0.00 52 1006.8
20260506162920 59 336 0.0 0.0 0.00 0.00 0.00 53 1006.8
20260506162420 59 260 0.0 1.7 0.00 0.00 0.00 53 1006.8
20260506161919 59 45 0.9 2.6 0.00 0.00 0.00 53 1006.8
20260506161423 59 355 0.0 0.9 0.00 0.00 0.00 53 1006.8
20260506160921 60 132 0.0 0.9 0.00 0.00 0.00 53 1006.8
20260506160424 59 259 0.0 1.7 0.00 0.00 0.00 53 1006.8
20260506155923 59 233 0.0 0.9 0.00 0.00 0.00 54 1006.8
20260506155422 60 124 0.0 0.9 0.00 0.00 0.00 53 1006.8
20260506154919 59 231 0.0 0.9 0.00 0.00 0.00 53 1006.8
20260506154418 59 268 0.0 0.9 0.00 0.00 0.00 53 1006.8
20260506153919 59 337 0.0 1.7 0.00 0.00 0.00 54 1006.8
20260506153418 57 276 0.0 0.9 0.00 0.00 0.00 56 1006.8
20260506152921 58 258 0.0 1.7 0.00 0.00 0.00 55 1006.8
20260506152421 59 290 0.9 1.7 0.00 0.00 0.00 53 1006.8
20260506151918 58 198 0.0 0.9 0.00 0.00 0.00 55 1006.8
20260506151419 57 144 0.9 1.7 0.00 0.00 0.00 57 1006.8
20260506150921 58 209 0.0 0.9 0.00 0.00 0.00 58 1006.8
20260506150424 58 81 0.0 0.9 0.00 0.00 0.00 57 1007.1
20260506145921 58 343 1.7 1.7 0.00 0.00 0.00 58 1006.8
20260506145422 59 163 1.7 4.3 0.00 0.00 0.00 57 1006.8
20260506144925 58 267 0.9 1.7 0.00 0.00 0.00 58 1006.8
20260506144424 58 162 0.9 1.7 0.00 0.00 0.00 57 1006.8
20260506143923 58 16 0.0 0.9 0.00 0.00 0.00 57 1007.1
20260506143423 58 161 0.0 0.9 0.00 0.00 0.00 56 1006.8
20260506142922 57 356 0.0 2.6 0.00 0.00 0.00 58 1006.8
20260506142422 57 29 0.0 0.9 0.00 0.00 0.00 58 1006.8
20260506141919 57 316 0.9 2.6 0.00 0.00 0.00 59 1006.8
20260506141420 57 309 0.0 1.7 0.00 0.00 0.00 58 1006.8
20260506140919 57 330 0.0 1.7 0.00 0.00 0.00 59 1006.8
20260506140420 57 359 0.0 2.6 0.00 0.00 0.00 59 1006.8
20260506135919 57 334 0.0 0.9 0.00 0.00 0.00 58 1006.8
20260506135421 58 54 0.9 1.7 0.00 0.00 0.00 56 1007.1
20260506134920 57 208 0.9 0.9 0.00 0.00 0.00 57 1006.8
20260506134421 56 312 0.0 2.6 0.00 0.00 0.00 59 1007.1
20260506133923 57 263 0.0 0.9 0.00 0.00 0.00 57 1006.8
20260506133420 57 308 0.0 0.0 0.00 0.00 0.00 57 1007.1
20260506132920 57 134 0.0 0.9 0.00 0.00 0.00 57 1006.8
20260506132422 57 96 0.0 1.7 0.00 0.00 0.00 57 1007.1
20260506131922 56 178 0.9 1.7 0.00 0.00 0.00 59 1006.8
20260506131423 57 72 0.0 2.6 0.00 0.00 0.00 57 1006.8
20260506130922 58 306 0.0 1.7 0.00 0.00 0.00 54 1006.8
20260506130423 59 156 0.0 2.6 0.00 0.00 0.00 52 1006.8
20260506125922 60 338 0.9 0.9 0.00 0.00 0.00 52 1006.8
20260506125418 58 218 0.0 0.0 0.00 0.00 0.00 54 1006.8
20260506124920 57 231 0.0 0.9 0.00 0.00 0.00 56 1006.8
20260506124422 57 117 0.9 4.3 0.00 0.00 0.00 57 1006.8
20260506123921 57 141 2.6 2.6 0.00 0.00 0.00 57 1007.1
20260506123421 57 36 0.0 0.9 0.00 0.00 0.00 56 1006.8
20260506122921 57 195 0.9 1.7 0.00 0.00 0.00 55 1006.8
20260506122419 58 119 0.9 0.9 0.00 0.00 0.00 55 1006.8
20260506121919 57 24 0.0 0.9 0.00 0.00 0.00 56 1006.8
20260506121420 56 151 0.9 1.7 0.00 0.00 0.00 57 1006.8
20260506120924 56 18 0.9 2.6 0.00 0.00 0.00 57 1006.8
20260506120421 57 161 1.7 2.6 0.00 0.00 0.00 55 1006.8
20260506115919 56 260 0.9 5.2 0.00 0.00 0.00 56 1006.8
20260506115420 55 154 1.7 1.7 0.00 0.00 0.00 57 1006.8
20260506114920 55 273 0.0 1.7 0.00 0.00 0.00 58 1006.8
20260506114421 56 204 0.9 0.9 0.00 0.00 0.00 57 1006.8
20260506113921 57 118 0.0 5.2 0.00 0.00 0.00 56 1006.8
20260506113421 57 165 0.9 0.9 0.00 0.00 0.00 53 1006.8
20260506112924 56 285 0.0 2.6 0.00 0.00 0.00 52 1006.8
20260506112421 55 200 0.9 4.3 0.00 0.00 0.00 54 1007.1
20260506111920 56 94 2.6 4.3 0.00 0.00 0.00 52 1006.8
20260506111419 57 213 0.0 4.3 0.00 0.00 0.00 51 1006.8
20260506110918 57 137 0.9 0.9 0.00 0.00 0.00 49 1006.8
20260506110420 56 68 0.0 4.3 0.00 0.00 0.00 52 1006.8
20260506105919 57 22 0.0 0.0 0.00 0.00 0.00 52 1007.1
20260506105421 56 116 0.9 2.6 0.00 0.00 0.00 53 1006.8
20260506104921 56 111 0.9 1.7 0.00 0.00 0.00 55 1006.8
20260506104418 56 185 0.9 1.7 0.00 0.00 0.00 53 1006.8
20260506103920 56 19 0.9 1.7 0.00 0.00 0.00 54 1006.8
20260506103420 55 2 0.9 1.7 0.00 0.00 0.00 55 1006.8
20260506102920 55 267 0.0 0.9 0.00 0.00 0.00 56 1006.8
20260506101936 53 27 1.7 5.2 0.00 0.00 0.00 58 1007.1
20260506101419 53 118 1.7 2.6 0.00 0.00 0.00 58 1006.8
20260506100921 53 91 0.9 6.1 0.00 0.00 0.00 59 1006.8
20260506100423 54 302 1.7 1.7 0.00 0.00 0.00 57 1007.1
20260506095921 54 90 0.9 1.7 0.00 0.00 0.00 56 1007.1
20260506095418 54 107 0.0 0.9 0.00 0.00 0.00 56 1006.8
20260506094918 54 192 0.9 4.3 0.00 0.00 0.00 57 1007.1
20260506094421 54 24 0.0 1.7 0.00 0.00 0.00 57 1006.8
20260506093919 54 115 0.9 1.7 0.00 0.00 0.00 56 1007.1
20260506093420 54 239 0.0 0.9 0.00 0.00 0.00 57 1007.1
20260506092920 54 145 0.9 2.6 0.00 0.00 0.00 57 1006.8
20260506092421 55 237 0.9 1.7 0.00 0.00 0.00 57 1006.8
20260506091921 54 71 0.9 1.7 0.00 0.00 0.00 58 1006.8
20260506091420 54 64 1.7 2.6 0.00 0.00 0.00 58 1006.8
20260506090918 54 106 0.0 1.7 0.00 0.00 0.00 59 1006.8
20260506090420 54 292 1.7 4.3 0.00 0.00 0.00 59 1006.8
20260506085920 53 303 0.9 2.6 0.00 0.00 0.00 61 1007.1
20260506085418 53 173 0.0 1.7 0.00 0.00 0.00 62 1006.8
20260506084923 52 206 0.0 0.9 0.00 0.00 0.00 63 1006.8
20260506084421 52 93 1.7 2.6 0.00 0.00 0.00 63 1006.8
20260506083919 52 149 0.9 2.6 0.00 0.00 0.00 63 1006.8
20260506083418 52 18 1.7 1.7 0.00 0.00 0.00 63 1006.8
20260506082918 52 122 0.0 1.7 0.00 0.00 0.00 64 1006.8
20260506082419 52 107 1.7 2.6 0.00 0.00 0.00 64 1006.4
20260506081918 52 186 1.7 2.6 0.00 0.00 0.00 65 1006.8
20260506081421 52 330 0.0 0.0 0.00 0.00 0.00 66 1006.8
20260506080921 52 51 0.9 0.9 0.00 0.00 0.00 66 1006.8
20260506080420 52 231 0.9 1.7 0.00 0.00 0.00 67 1006.8
20260506073419 50 125 0.0 2.6 0.00 0.00 0.00 72 1006.8
20260506072919 50 295 0.0 1.7 0.00 0.00 0.00 72 1006.8
20260506072418 49 152 0.9 1.7 0.00 0.00 0.00 73 1006.8
20260506071920 49 261 0.0 1.7 0.00 0.00 0.00 74 1006.8
20260506071418 49 138 0.9 1.7 0.00 0.00 0.00 74 1006.8
20260506070919 50 140 0.0 0.9 0.00 0.00 0.00 73 1006.8
20260506070419 49 198 0.0 0.9 0.00 0.00 0.00 74 1006.8
20260506062420 48 191 0.0 0.0 0.00 0.00 0.00 74 1006.4
20260506061921 49 104 0.0 0.9 0.00 0.00 0.00 73 1006.4
20260506061420 48 208 0.0 0.0 0.00 0.00 0.00 74 1006.8
20260506060920 49 83 0.0 1.7 0.00 0.00 0.00 74 1006.8
20260506060419 48 132 0.0 0.9 0.00 0.00 0.00 74 1006.4